Weather Roundup
Issued by NWS

Home | Current Version | Previous Version | Graphics & Text | Print | Product List | Glossary Off
Versions: 1 2 3 4 5 6 7 8 9 10 11 12 13 14 15 16 17 18 19 20 21 22 23 24 25 26 27 28 29 30 31 32 33 34 35 36 37 38 39 40 41 42 43 44 45 46 47 48 49 50

000
NZUS93 KARX 030710
HRRWXR

CURRENT HOURLY OBSERVATIONS ACROSS
MUCH OF THE UPPER MISSISSIPPI VALLEY
NATIONAL WEATHER SERVICE LA CROSSE WI
200 AM CDT WED JUN 03 2015


...SOUTHEAST MINNESOTA...


CITY           SKY/WX    TMP DP  RH WIND       PRES   REMARKS
ROCHESTER      CLEAR     60  53  77 S14       29.97S
ROCHESTER/MAYO FAIR      60  54  78 S7        29.96S
WINONA         CLEAR     59  50  72 SE5       29.97S
AUSTIN         PTCLDY    61  54  77 S9        29.95F
ALBERT LEA     PTCLDY    63  54  72 S10G18    29.93F
DODGE CENTER   PTCLDY    61  54  77 S15       29.94F
PRESTON        CLEAR     55  51  86 S7        29.98F
OWATONNA       PTCLDY    63  54  72 S10G16    29.92F
FARIBAULT      PTCLDY    63  54  72 S10       29.91F
$$

...ELSEWHERE IN MINNESOTA...


CITY           SKY/WX    TMP DP  RH WIND       PRES   REMARKS
MINNEAPOLIS    CLOUDY    66  53  63 S13G20    29.89F
INTNL FALLS    LGT RAIN  59  57  93 S6        29.82F
DULUTH         CLOUDY    52  42  69 SE7       29.89S
RED WING       PTCLDY    63  52  67 SE5       29.93S
REDWOOD FALLS  MOCLDY    65  56  72 S15       29.81F
MANKATO        PTCLDY    64  54  68 S12G17    29.89F
WORTHINGTON    MOCLDY    63  54  72 S18G24    29.86S
FAIRMONT       PTCLDY    63  52  67 S15       29.88F
$$

...SOUTHWEST WISCONSIN...


CITY           SKY/WX    TMP DP  RH WIND       PRES   REMARKS
LA CROSSE      CLEAR     62  49  62 S8        29.98S
PRAIRIE DU CHI PTCLDY    56  49  76 E6        30.01S
BOSCOBEL       PTCLDY    53  51  93 CALM      30.02S
LONE ROCK      MOCLDY    54  48  80 E7        30.03F
PLATTEVILLE    MOCLDY    58  49  69 SE7       30.03S
FORT MC COY    CLEAR     48  44  86 CALM      30.00F
CAMP DOUGLAS   PTCLDY    46  46 100 SE3       30.01S
VIROQUA        FAIR      57  47  69 S7        30.01F
WIS DELLS      MOCLDY    54  46  73 SE3       30.04S
$$

...ELSEWHERE IN WISCONSIN...


CITY           SKY/WX    TMP DP  RH WIND       PRES   REMARKS
MILWAUKEE      MOCLDY    50  42  74 S8        30.10S
MADISON        MOCLDY    59  47  64 S9        30.05S
GREEN BAY      PTCLDY    49  42  77 CALM      30.06F
EAU CLAIRE     CLEAR     60  48  64 S5        29.95F
BLACK RVR FLS  FAIR      46  46 100 CALM      29.98F
MEDFORD        MOCLDY    55  46  69 S7        30.00F
WAUSAU         PTCLDY    55  46  71 SE5       30.01F
WIS RAPIDS     CLEAR     55  46  71 S6        30.03F
MARSHFIELD     PTCLDY    53  45  74 S6        30.01S
RICE LAKE      PTCLDY    60  50  69 SE8       29.95R
$$

...NORTHEAST IOWA...


CITY           SKY/WX    TMP DP  RH WIND       PRES   REMARKS
DECORAH        CLEAR     57  54  88 S5        29.99S
MASON CITY     PTCLDY    59  54  83 S9        29.97S
CHARLES CITY   CLEAR     59  55  88 S10       29.99R
OELWEIN        PTCLDY    57  54  88 S9        30.00F
$$

...ELSEWHERE IN IOWA...


CITY           SKY/WX    TMP DP  RH WIND       PRES   REMARKS
DES MOINES     MOCLDY    62  55  77 SE9       29.97S
IOWA CITY      PTCLDY    58  54  86 SE3       30.03R
FORT DODGE     PTCLDY    63  54  72 S13       29.94F
$$

...NORTHERN ILLINOIS...


CITY           SKY/WX    TMP DP  RH WIND       PRES   REMARKS
CHICAGO-OHARE  MOCLDY    53  44  71 SE3       30.08F
CHICAGO-MIDWAY PTCLDY    57  48  72 E5        30.08F
MOLINE         MOCLDY    59  51  75 SE5       30.02S
ROCKFORD       CLOUDY    57  48  72 SE12      30.08R
PEORIA         PTCLDY    64  53  67 SE9       30.04S
$$

NOTE: "FAIR" INDICATES FEW OR NO CLOUDS BELOW 12,000 FEET WITH NO
SIGNIFICANT WEATHER AND/OR OBSTRUCTIONS TO VISIBILITY. WIND
SPEEDS ARE IN MILES-PER-HOUR.



USA.gov is the U.S. government's official web portal to all federal, state and local government web resources and services.